TimeICT,TemperatureF,Dew PointF,Humidity,Sea Level PressureIn,VisibilityMPH,Wind Direction,Wind SpeedMPH,Gust SpeedMPH,PrecipitationIn,Events,Conditions,WindDirDegrees,DateUTC
12:00 AM,86.0,73.4,66,29.77,6.2,Calm,Calm,-,N/A,,Scattered Clouds,0,2013-11-11 17:00:00
12:30 AM,84.2,73.4,70,29.77,6.2,Calm,Calm,-,N/A,,Scattered Clouds,0,2013-11-11 17:30:00
1:00 AM,84.2,73.4,70,29.77,6.2,Calm,Calm,-,N/A,,Scattered Clouds,0,2013-11-11 18:00:00
1:30 AM,84.2,73.4,70,29.74,6.2,Calm,Calm,-,N/A,,Scattered Clouds,0,2013-11-11 18:30:00
2:00 AM,84.2,73.4,70,29.74,6.2,Calm,Calm,-,N/A,,Scattered Clouds,0,2013-11-11 19:00:00
2:30 AM,84.2,73.4,70,29.74,6.2,Calm,Calm,-,N/A,,Scattered Clouds,0,2013-11-11 19:30:00
3:00 AM,84.2,73.4,70,29.74,6.2,Calm,Calm,-,N/A,,Scattered Clouds,0,2013-11-11 20:00:00
3:30 AM,84.2,73.4,70,29.74,6.2,Calm,Calm,-,N/A,,Scattered Clouds,0,2013-11-11 20:30:00
4:00 AM,82.4,75.2,79,29.74,6.2,Calm,Calm,-,N/A,,Scattered Clouds,0,2013-11-11 21:00:00
4:30 AM,82.4,75.2,79,29.74,6.2,Calm,Calm,-,N/A,,Scattered Clouds,0,2013-11-11 21:30:00
5:00 AM,82.4,75.2,79,29.74,6.2,Calm,Calm,-,N/A,,Scattered Clouds,0,2013-11-11 22:00:00
5:30 AM,82.4,75.2,79,29.74,6.2,Calm,Calm,-,N/A,,Scattered Clouds,0,2013-11-11 22:30:00
6:00 AM,80.6,75.2,84,29.77,6.2,ESE,3.5,-,N/A,,Scattered Clouds,120,2013-11-11 23:00:00
6:30 AM,80.6,75.2,84,29.77,6.2,ESE,3.5,-,N/A,,Scattered Clouds,120,2013-11-11 23:30:00
7:00 AM,81,77,84,29.79,6,ESE,3.5,,,,Mist,120,2013-11-12 00:00:00
7:00 AM,80.6,77.0,89,29.77,5.6,ESE,3.5,-,N/A,,Scattered Clouds,120,2013-11-12 00:00:00
7:30 AM,82.4,77.0,84,29.80,5.6,ESE,3.5,-,N/A,,Scattered Clouds,120,2013-11-12 00:30:00
8:00 AM,82.4,77.0,84,29.80,5.0,ESE,3.5,-,N/A,,Scattered Clouds,120,2013-11-12 01:00:00
8:30 AM,84.2,77.0,79,29.83,4.3,ESE,3.5,-,N/A,,Scattered Clouds,110,2013-11-12 01:30:00
9:00 AM,86.0,77.0,74,29.83,4.3,Calm,Calm,-,N/A,,Mostly Cloudy,0,2013-11-12 02:00:00
9:30 AM,87.8,77.0,70,29.83,5.0,South,3.5,-,N/A,,Mostly Cloudy,170,2013-11-12 02:30:00
10:00 AM,89.6,77.0,66,29.83,5.0,East,5.8,-,N/A,,Mostly Cloudy,100,2013-11-12 03:00:00
10:30 AM,89.6,77.0,66,29.83,5.6,SSE,5.8,-,N/A,,Mostly Cloudy,160,2013-11-12 03:30:00
11:00 AM,91.4,75.2,59,29.83,5.6,East,8.1,-,N/A,,Mostly Cloudy,80,2013-11-12 04:00:00
11:30 AM,91.4,75.2,59,29.80,5.6,SSE,6.9,-,N/A,,Scattered Clouds,160,2013-11-12 04:30:00
12:00 PM,93.2,73.4,52,29.77,6.2,East,6.9,-,N/A,,Scattered Clouds,90,2013-11-12 05:00:00
12:30 PM,93.2,73.4,52,29.77,6.2,South,5.8,-,N/A,,Scattered Clouds,170,2013-11-12 05:30:00
1:00 PM,95,73,40,29.77,6,WSW,5.8,,,,Partly Cloudy,240,2013-11-12 06:00:00
1:00 PM,95.0,73.4,49,29.77,6.2,WSW,5.8,-,N/A,,Scattered Clouds,240,2013-11-12 06:00:00
1:30 PM,95.0,73.4,49,29.74,6.2,ESE,8.1,-,N/A,,Scattered Clouds,110,2013-11-12 06:30:00
2:00 PM,95.0,71.6,47,29.74,6.2,NE,4.6,-,N/A,,Scattered Clouds,40,2013-11-12 07:00:00
2:30 PM,95.0,71.6,47,29.71,6.2,South,3.5,-,N/A,,Scattered Clouds,170,2013-11-12 07:30:00
3:00 PM,96.8,71.6,44,29.71,6.2,East,3.5,-,N/A,,Scattered Clouds,80,2013-11-12 08:00:00
3:30 PM,96.8,71.6,44,29.71,6.2,Calm,Calm,-,N/A,,Scattered Clouds,0,2013-11-12 08:30:00
4:00 PM,97,72,34,29.72,6,West,4.6,,,,Scattered Clouds,260,2013-11-12 09:00:00
4:00 PM,96.8,71.6,44,29.71,6.2,West,4.6,-,N/A,,Partly Cloudy,260,2013-11-12 09:00:00
4:30 PM,96.8,71.6,44,29.71,6.2,West,8.1,-,N/A,,Scattered Clouds,280,2013-11-12 09:30:00
5:00 PM,95.0,69.8,44,29.71,6.2,West,5.8,-,N/A,,Mostly Cloudy,280,2013-11-12 10:00:00
5:30 PM,93.2,69.8,46,29.74,6.2,West,9.2,-,N/A,,Mostly Cloudy,280,2013-11-12 10:30:00
6:00 PM,89.6,73.4,59,29.74,5.0,WNW,8.1,-,N/A,,Mostly Cloudy,290,2013-11-12 11:00:00
6:30 PM,87.8,73.4,62,29.74,5.6,WNW,5.8,-,N/A,,Scattered Clouds,290,2013-11-12 11:30:00
7:00 PM,87,73,56,29.76,6,WNW,4.6,,,,Scattered Clouds,300,2013-11-12 12:00:00
7:00 PM,87.8,73.4,62,29.74,6.2,WNW,4.6,-,N/A,,Scattered Clouds,300,2013-11-12 12:00:00
7:30 PM,86.0,73.4,66,29.77,6.2,West,3.5,-,N/A,,Mostly Cloudy,270,2013-11-12 12:30:00
8:00 PM,86.0,73.4,66,29.77,6.2,SSW,4.6,-,N/A,,Mostly Cloudy,210,2013-11-12 13:00:00
8:30 PM,86.0,73.4,66,29.80,6.2,WSW,4.6,-,N/A,,Mostly Cloudy,240,2013-11-12 13:30:00
9:00 PM,86.0,73.4,66,29.80,6.2,West,4.6,-,N/A,,Mostly Cloudy,270,2013-11-12 14:00:00
9:30 PM,86.0,73.4,66,29.80,6.2,West,3.5,-,N/A,,Mostly Cloudy,270,2013-11-12 14:30:00
10:00 PM,86,73,57,29.81,6,West,3.5,,,,Scattered Clouds,270,2013-11-12 15:00:00
10:00 PM,86.0,73.4,66,29.80,6.2,West,3.5,-,N/A,,Mostly Cloudy,270,2013-11-12 15:00:00
10:30 PM,84.2,75.2,74,29.80,6.2,West,6.9,-,N/A,,Mostly Cloudy,270,2013-11-12 15:30:00
11:00 PM,84.2,75.2,74,29.80,6.2,West,4.6,-,N/A,,Mostly Cloudy,270,2013-11-12 16:00:00
11:30 PM,84.2,75.2,74,29.80,6.2,WSW,2.3,-,N/A,,Mostly Cloudy,250,2013-11-12 16:30:00